ECHOSTAR 23

Last updated on Wed Sep 09 2026 00:03:01 GMT+0000 (Coordinated Universal Time)

1 42070U 17014A 26251.20945573 .00000000 00000+0 00000+0 0 9995 2 42070 0.0291 140.4425 0002100 20.3794 151.9680 1.00270078 34759
UTC large
Height (km)
Speed (km/s)
/
Latitude / Longitude
Inclination (degrees)
Orbital Period (minutes)
Azimuth
Elevation
Range (km)
Doppler Factor

Next 0 passes for location: London (51.5072 / 0.1276)

No passes found over London.
ECHOSTAR 23